Retour au catalogue

ONEWEB-0102

ActifCommunicationsPO
NORAD 47258·PAYLOAD·🇬🇧 United Kingdom

Lancé Dec 18, 2020 depuis Vostochny Cosmodrome

Loading…

Prochains Passages (prochaines 24 heures)

TLE

FraisSource: CelesTrak SupGP

Époque: Sep 14, 2026, 17:37 UTC

1 47258C 20100A   26257.73421713 -.00000788  00000+0 -21922-2 0  2578
2 47258  87.8985 332.8943 0001900  94.5609   7.4796 13.12447374    18

Suivez ONEWEB-0102 en temps réel avec AllMySat

Download on the App Store